1505181600.17,63707,16.25,73172.5,6.41,5.73,5.73,0,*7B
1505181601.4,63708,16.25,73176.3,6.41,5.73,5.73,0,*74
1505181602.62,63709,16.25,73174.5,6.43,5.63,5.73,0,*76
1505181603.82,63710,16.25,73176.8,6.41,5.71,5.77,0,*7B
1505181605.04,63711,16.25,73174.0,6.41,5.73,5.77,0,*78
1505181606.29,63712,16.25,73174.3,6.43,5.73,5.77,0,*79
1505181607.54,63713,16.25,73174.8,6.43,5.73,5.77,0,*78
1505181608.76,63714,16.25,73178.3,6.41,5.77,5.77,0,*79
1505181610.0,63715,16.25,73172.5,6.43,5.77,5.77,0,*7A
1505181611.22,63716,16.31,73182.0,6.41,5.77,5.77,0,*7B
1505181612.46,63717,16.25,73176.0,6.43,5.77,5.73,0,*7C
1505181613.68,63718,16.31,73178.0,6.41,5.73,5.73,0,*75
1505181614.9,63719,16.25,73174.8,6.41,5.77,5.77,0,*74
1505181616.12,63720,16.25,73174.8,6.41,5.73,5.73,0,*7E
1505181617.35,63721,16.25,73176.0,6.41,5.73,5.77,0,*7B
1505181618.57,63722,16.25,73172.8,6.41,5.73,5.77,0,*78
1505181619.82,63723,16.25,73172.8,6.43,5.73,5.73,0,*7F
1505181621.04,63724,16.25,73174.3,6.41,5.73,5.73,0,*7A
1505181622.29,63725,16.25,73176.0,6.43,5.73,5.73,0,*79
1505181623.51,63726,16.25,73172.0,6.41,5.77,5.73,0,*7C
1505181624.73,63727,16.25,73174.3,6.41,5.73,5.73,0,*79
1505181625.95,63728,16.25,73172.3,6.41,5.77,5.77,0,*76
1505181627.18,63729,16.25,73174.5,6.41,5.73,5.73,0,*77
1505181628.42,63730,16.25,73178.0,6.43,5.77,5.85,0,*70
1505181629.66,63731,16.25,73174.0,6.43,5.77,5.77,0,*7C
1505181630.9,63732,16.25,73176.5,6.43,5.77,5.77,0,*7F
1505181632.12,63733,16.25,73176.3,6.41,5.77,5.77,0,*7C
1505181633.37,63734,16.25,73178.0,6.43,5.73,5.77,0,*7D
1505181634.59,63735,16.25,73176.0,6.41,5.77,5.77,0,*7A
1505181635.81,63736,16.25,73178.3,6.41,5.73,5.77,0,*7D
1505181637.06,63737,16.25,73176.3,6.43,5.85,5.85,0,*7A
1505181638.28,63738,16.25,73172.5,6.41,5.77,5.85,0,*7A
1505181639.5,63739,16.25,73176.3,6.41,5.77,5.77,0,*76
1505181640.72,63740,16.25,73176.5,6.41,5.77,5.73,0,*7C
1505181641.94,63741,16.25,73172.3,6.41,5.73,5.77,0,*7D
1505181643.17,63742,16.25,73174.5,6.41,5.73,5.73,0,*7A
1505181644.39,63743,16.25,73172.5,6.41,5.73,5.73,0,*7B
1505181645.64,63744,16.25,73176.0,6.43,5.73,5.73,0,*7E
1505181646.86,63745,16.25,73172.0,6.41,5.73,5.73,0,*7D
1505181648.09,63746,16.25,73174.8,6.41,5.73,5.73,0,*7E
1505181649.31,63747,16.25,73174.8,6.41,5.73,5.77,0,*7B
1505181650.53,63748,16.31,73178.3,6.41,5.77,5.77,0,*70
1505181651.78,63749,16.25,73176.5,6.43,5.73,5.77,0,*77
1505181653.0,63750,16.25,73174.5,6.41,5.73,5.77,0,*7D
1505181654.23,63751,16.25,73174.0,6.43,5.49,5.51,0,*73
1505181655.4,63752,16.25,73172.5,6.41,5.71,5.63,0,*78
1505181656.58,63753,16.25,73174.0,6.41,5.71,5.71,0,*7A
1505181657.78,63754,16.25,73174.0,6.41,5.71,5.73,0,*7F
1505181658.96,63755,16.25,73172.8,6.41,5.71,5.63,0,*7F
1505181660.16,63756,16.25,73172.3,6.41,5.71,5.77,0,*79
1505181661.34,63757,16.25,73172.5,6.41,5.59,5.59,0,*7E
1505181662.52,63758,16.25,73174.0,6.41,5.63,5.63,0,*71
1505181663.7,63759,16.25,73176.5,6.41,5.63,5.71,0,*73
1505181664.88,63760,16.25,73174.5,6.41,5.63,5.71,0,*79
1505181666.08,63761,16.25,73172.8,6.43,5.59,5.71,0,*73
1505181667.29,63762,16.25,73174.5,6.41,5.51,5.59,0,*70
1505181668.46,63763,16.25,73176.0,6.41,5.59,5.63,0,*70
1505181669.64,63764,16.25,73174.0,6.41,5.59,5.63,0,*77
1505181670.82,63765,16.25,73170.3,6.41,5.59,5.71,0,*75
1505181672.02,63766,16.25,73170.8,6.41,5.51,5.63,0,*7D
1505181673.2,63767,16.25,73170.3,6.41,5.59,5.63,0,*74
1505181674.43,63768,16.25,73172.0,6.39,5.55,5.59,0,*71
1505181675.6,63769,16.25,73170.5,6.41,5.71,5.71,0,*73
1505181676.78,63770,16.25,73174.5,6.41,5.71,5.71,0,*7B
1505181677.99,63771,16.25,73174.3,6.39,5.59,5.59,0,*75
1505181679.2,63772,16.25,73174.5,6.39,5.59,5.67,0,*7B
1505181680.38,63773,16.25,73170.5,6.41,5.63,5.71,0,*7B
1505181681.56,63774,16.25,73168.5,6.41,5.71,5.71,0,*7F
1505181682.74,63775,16.25,73170.8,6.41,5.63,5.71,0,*7D
1505181683.92,63776,16.25,73172.3,6.41,5.63,5.71,0,*7E
1505181685.1,63777,16.25,73172.8,6.41,5.71,5.71,0,*7C
1505181686.31,63778,16.25,73170.5,6.39,5.59,5.59,0,*7C
1505181687.52,63779,16.31,73172.0,6.39,5.67,5.67,0,*7D
1505181688.7,63780,16.25,73170.3,6.41,5.63,5.71,0,*77
1505181689.88,63781,16.25,73172.0,6.41,5.71,5.63,0,*76
1505181691.06,63782,16.25,73174.3,6.41,5.63,5.71,0,*75
1505181692.27,63783,16.31,73172.3,6.39,5.59,5.67,0,*75
1505181693.49,63784,16.31,73172.8,6.39,5.55,5.59,0,*73
1505181694.72,63785,16.25,73172.0,6.39,5.55,5.59,0,*72
1505181695.9,63786,16.25,73172.8,6.41,5.59,5.63,0,*7B
1505181697.08,63787,16.25,73168.3,6.41,5.71,5.71,0,*73
1505181698.29,63788,16.25,73174.3,6.39,5.59,5.67,0,*7E
1505181699.5,63789,16.25,73172.0,6.39,5.59,5.67,0,*7F
1505181700.7,63790,16.31,73174.8,6.41,5.51,5.71,0,*77
1505181701.9,63791,16.25,73174.5,6.41,5.51,5.71,0,*76
1505181703.1,63792,16.25,73168.8,6.41,5.51,5.59,0,*7F
1505181704.28,63793,16.25,73172.0,6.41,5.59,5.71,0,*7C
1505181705.46,63794,16.25,73170.5,6.41,5.59,5.63,0,*78
1505181706.63,63795,16.25,73174.0,6.41,5.59,5.71,0,*7A
1505181707.81,63796,16.31,73178.5,6.41,5.59,5.71,0,*79
1505181708.99,63797,16.25,73170.0,6.41,5.59,5.63,0,*7B
1505181710.2,63798,16.25,73174.0,6.39,5.49,5.67,0,*7E
1505181711.4,63799,16.25,73174.3,6.39,5.49,5.67,0,*7F
1505181712.61,63800,16.25,73172.0,6.39,5.49,5.59,0,*7D
1505181713.79,63801,16.31,73174.3,6.41,5.49,5.71,0,*79
1505181714.96,63802,16.25,73174.3,6.41,5.41,5.71,0,*72
1505181716.14,63803,16.25,73174.3,6.41,5.49,5.63,0,*78
1505181717.35,63804,16.25,73170.8,6.39,5.37,5.67,0,*7D
1505181718.55,63805,16.25,73172.0,6.37,5.33,5.55,0,*77
1505181719.78,63806,16.25,73170.5,6.39,5.33,5.55,0,*7A
1505181721.02,63807,16.25,73170.8,6.39,5.27,5.55,0,*7E
1505181722.23,63808,16.25,73174.8,6.39,5.33,5.49,0,*79
1505181723.42,63809,16.25,73174.3,6.37,5.29,5.51,0,*74
1505181724.6,63810,16.25,73172.5,6.37,5.33,5.63,0,*76
1505181725.79,63811,16.25,73172.0,6.37,5.45,5.55,0,*73
1505181727.0,63812,16.25,73174.0,6.39,5.37,5.59,0,*77
1505181728.21,63813,16.25,73172.0,6.39,5.49,5.67,0,*72
1505181729.41,63814,16.25,73174.8,6.39,5.49,5.59,0,*78
1505181730.59,63815,16.25,73174.5,6.37,5.41,5.63,0,*76
1505181731.79,63816,16.25,73172.0,6.37,5.33,5.51,0,*71
1505181732.99,63817,16.25,73174.5,6.39,5.45,5.67,0,*7A
1505181734.17,63818,16.25,73172.0,6.37,5.49,5.59,0,*7A
1505181735.37,63819,16.25,73174.0,6.39,5.49,5.59,0,*75
1505181736.58,63820,16.31,73174.0,6.39,5.49,5.59,0,*7F
1505181737.78,63821,16.25,73172.5,6.39,5.49,5.59,0,*7E
1505181738.99,63822,16.25,73172.0,6.39,5.49,5.59,0,*7D
1505181740.21,63823,16.31,73174.8,6.39,5.45,5.55,0,*7C
1505181741.43,63824,16.25,73174.3,6.39,5.27,5.41,0,*7A
1505181742.64,63825,16.25,73174.8,6.39,5.33,5.45,0,*7A
1505181743.81,63826,16.31,73174.3,6.37,5.23,5.45,0,*76
1505181745.01,63827,16.25,73174.3,6.41,5.41,5.51,0,*77
1505181746.24,63828,16.25,73170.3,6.39,5.33,5.55,0,*76
1505181747.45,63829,16.25,73168.3,6.39,5.33,5.49,0,*7A
1505181748.65,63830,16.25,73172.8,6.37,5.33,5.51,0,*75
1505181749.82,63831,16.31,73174.5,6.37,5.33,5.45,0,*71
1505181751.02,63832,16.25,73174.0,6.37,5.41,5.55,0,*76
1505181752.25,63833,16.25,73172.0,6.39,5.49,5.55,0,*71
1505181753.48,63834,16.25,73172.5,6.39,5.55,5.59,0,*77
1505181754.71,63835,16.25,73172.0,6.39,5.55,5.59,0,*76
1505181755.9,63836,16.25,73174.8,6.37,5.51,5.63,0,*76
1505181757.1,63837,16.25,73172.3,6.37,5.51,5.63,0,*77
1505181758.3,63838,16.31,73174.0,6.37,5.55,5.67,0,*78
1505181759.49,63839,16.25,73172.8,6.37,5.51,5.63,0,*79
1505181760.71,63840,16.25,73174.3,6.37,5.55,5.55,0,*76
1505181761.94,63841,16.25,73170.5,6.39,5.55,5.67,0,*78
1505181763.14,63842,16.25,73170.8,6.37,5.51,5.63,0,*75
1505181764.34,63843,16.25,73172.0,6.39,5.49,5.67,0,*77
1505181765.54,63844,16.25,73174.8,6.37,5.51,5.63,0,*73
1505181766.75,63845,16.31,73172.5,6.39,5.59,5.67,0,*70
1505181767.97,63846,16.25,73170.3,6.37,5.55,5.55,0,*70
1505181769.17,63847,16.25,73170.3,6.37,5.55,5.63,0,*74
1505181770.36,63848,16.25,73172.0,6.37,5.55,5.63,0,*7B
1505181771.56,63849,16.25,73170.5,6.37,5.55,5.63,0,*7A
1505181772.75,63850,16.25,73170.5,6.37,5.51,5.63,0,*76
1505181773.95,63851,16.25,73170.3,6.37,5.51,5.63,0,*77
1505181775.17,63852,16.25,73172.0,6.37,5.51,5.55,0,*71
1505181776.38,63853,16.25,73174.5,6.39,5.67,5.67,0,*7A
1505181777.59,63854,16.25,73172.3,6.39,5.67,5.71,0,*7A
1505181778.81,63855,16.25,73170.8,6.37,5.55,5.55,0,*72
1505181780.03,63856,16.31,73170.8,6.37,5.51,5.55,0,*75
1505181781.23,63857,16.31,73168.5,6.37,5.63,5.55,0,*75
1505181782.44,63858,16.25,73164.0,6.39,5.59,5.59,0,*71
1505181783.66,63859,16.25,73166.0,6.37,5.51,5.55,0,*7A
1505181784.86,63860,16.31,73168.3,6.37,5.45,5.51,0,*71
1505181786.05,63861,16.25,73166.8,6.37,5.55,5.63,0,*70
1505181787.28,63862,16.25,73170.8,6.39,5.55,5.59,0,*74
1505181788.47,63863,16.25,73170.0,6.37,5.45,5.55,0,*76
1505181789.69,63864,16.25,73168.5,6.37,5.55,5.55,0,*70
1505181790.91,63865,16.25,73170.5,6.37,5.51,5.55,0,*75
1505181792.11,63866,16.31,73168.5,6.37,5.45,5.51,0,*77
1505181793.31,63867,16.25,73166.0,6.39,5.49,5.59,0,*7C
1505181794.51,63868,16.25,73168.5,6.37,5.45,5.55,0,*7D
1505181795.74,63869,16.25,73170.0,6.39,5.55,5.59,0,*7F
1505181796.9,63870,16.31,73168.0,6.37,5.45,5.45,0,*75
1505181798.12,63871,16.25,73166.0,6.37,5.51,5.51,0,*74
1505181799.34,63872,16.25,73168.3,6.39,5.67,5.67,0,*79
1505181800.51,63873,16.25,73164.5,6.37,5.63,5.63,0,*76
1505181801.73,63874,16.25,73164.0,6.37,5.51,5.51,0,*71
1505181802.94,63875,16.31,73166.3,6.39,5.59,5.67,0,*73
1505181804.17,63876,16.25,73162.5,6.39,5.55,5.59,0,*71
1505181805.37,63877,16.31,73168.5,6.39,5.49,5.45,0,*70
1505181806.56,63878,16.25,73166.0,6.37,5.45,5.51,0,*78
1505181807.76,63879,16.25,73166.0,6.37,5.55,5.63,0,*79
1505181808.98,63880,16.25,73164.5,6.37,5.55,5.55,0,*7A
1505181810.18,63881,16.25,73166.0,6.37,5.51,5.63,0,*7A
1505181811.35,63882,16.25,73166.8,6.37,5.63,5.63,0,*78
1505181812.56,63883,16.31,73168.0,6.39,5.67,5.71,0,*70
1505181813.74,63884,16.25,73166.8,6.37,5.63,5.67,0,*7A
1505181814.92,63885,16.25,73168.8,6.37,5.63,5.67,0,*7B
1505181816.13,63886,16.25,73170.8,6.39,5.67,5.71,0,*75
1505181817.31,63887,16.25,73168.5,6.37,5.63,5.67,0,*79
1505181818.53,63888,16.25,73170.8,6.37,5.55,5.55,0,*72
1505181819.75,63889,16.25,73170.8,6.37,5.51,5.55,0,*77
1505181820.97,63890,16.25,73170.8,6.37,5.55,5.55,0,*7B
1505181822.17,63891,16.25,73168.0,6.37,5.55,5.63,0,*7F
1505181823.35,63892,16.25,73172.3,6.37,5.63,5.63,0,*79
1505181824.54,63893,16.25,73168.5,6.37,5.55,5.63,0,*7D
1505181825.72,63894,16.25,73172.3,6.37,5.63,5.63,0,*7F
1505181826.9,63895,16.31,73168.8,6.37,5.63,5.63,0,*7E
1505181828.08,63896,16.25,73170.0,6.37,5.63,5.63,0,*7D
1505181829.25,63897,16.25,73168.0,6.37,5.63,5.63,0,*7C
1505181830.47,63898,16.25,73166.5,6.39,5.67,5.67,0,*7D
1505181831.65,63899,16.25,73168.5,6.37,5.63,5.67,0,*76
1505181832.83,63900,16.31,73170.3,6.37,5.67,5.67,0,*73
1505181834.01,63901,16.31,73168.3,6.37,5.63,5.67,0,*76
1505181835.19,63902,16.25,73168.5,6.37,5.63,5.67,0,*75
1505181836.37,63903,16.25,73168.3,6.37,5.63,5.67,0,*74
1505181837.55,63904,16.31,73174.0,6.37,5.63,5.67,0,*73
1505181838.73,63905,16.25,73168.3,6.37,5.63,5.67,0,*72
1505181839.92,63906,16.25,73170.8,6.37,5.63,5.67,0,*71
1505181841.12,63907,16.25,73172.3,6.39,5.67,5.71,0,*7D
1505181842.3,63908,16.25,73172.8,6.37,5.63,5.67,0,*7F
1505181843.48,63909,16.31,73174.8,6.37,5.63,5.71,0,*79
1505181844.66,63910,16.31,73172.8,6.37,5.67,5.71,0,*75
1505181845.84,63911,16.31,73174.8,6.37,5.67,5.67,0,*73
1505181847.05,63912,16.31,73174.8,6.39,5.71,5.71,0,*7E
1505181848.23,63913,16.31,73178.8,6.37,5.67,5.67,0,*71
1505181849.41,63914,16.25,73172.8,6.37,5.67,5.67,0,*76
1505181850.62,63915,16.25,73174.5,6.39,5.71,5.71,0,*79
1505181851.79,63916,16.25,73174.3,6.37,5.71,5.71,0,*74
1505181853.02,63917,16.25,73174.3,6.39,5.73,5.71,0,*79
1505181854.25,63918,16.31,73174.5,6.41,5.73,5.73,0,*7B
1505181855.43,63919,16.25,73172.8,6.37,5.67,5.67,0,*7B
1505181856.61,63920,16.31,73174.0,6.37,5.63,5.67,0,*75
1505181857.81,63921,16.25,73172.3,6.37,5.55,5.67,0,*71
1505181859.01,63922,16.25,73168.3,6.37,5.55,5.63,0,*76
1505181860.21,63923,16.25,73170.0,6.39,5.59,5.59,0,*7C
1505181861.44,63924,16.31,73172.3,6.39,5.55,5.59,0,*77
1505181862.65,63925,16.25,73168.5,6.39,5.67,5.67,0,*7A
1505181863.84,63926,16.25,73170.0,6.37,5.67,5.59,0,*7A
1505181865.06,63927,16.31,73170.0,6.39,5.55,5.59,0,*74
1505181866.26,63928,16.31,73170.8,6.37,5.45,5.51,0,*7C
1505181867.45,63929,16.25,73168.8,6.37,5.55,5.63,0,*7D
1505181868.67,63930,16.25,73170.5,6.39,5.67,5.67,0,*7E
1505181869.84,63931,16.31,73170.3,6.37,5.63,5.63,0,*71
1505181871.06,63932,16.25,73170.8,6.39,5.67,5.67,0,*7C
1505181872.23,63933,16.25,73166.5,6.37,5.63,5.71,0,*70
1505181873.41,63934,16.25,73164.5,6.37,5.63,5.71,0,*77
1505181874.59,63935,16.25,73170.3,6.37,5.67,5.67,0,*75
1505181875.78,63936,16.25,73170.5,6.37,5.67,5.67,0,*76
1505181876.96,63937,16.25,73170.3,6.37,5.63,5.67,0,*73
1505181878.16,63938,16.25,73170.5,6.37,5.55,5.67,0,*79
1505181879.36,63939,16.25,73170.8,6.39,5.67,5.71,0,*70
1505181880.55,63940,16.31,73170.5,6.37,5.63,5.67,0,*73
1505181881.75,63941,16.25,73168.8,6.39,5.67,5.71,0,*7F
1505181882.96,63942,16.25,73170.5,6.39,5.59,5.71,0,*71
1505181884.14,63943,16.25,73170.5,6.37,5.63,5.63,0,*74
1505181885.31,63944,16.25,73166.8,6.37,5.63,5.63,0,*73
1505181886.53,63945,16.25,73168.3,6.39,5.67,5.67,0,*7C
1505181887.7,63946,16.25,73168.8,6.37,5.63,5.63,0,*71
1505181888.91,63947,16.25,73168.5,6.39,5.67,5.71,0,*79
1505181890.11,63948,16.25,73172.5,6.37,5.55,5.63,0,*7A
1505181891.3,63949,16.25,73170.0,6.37,5.55,5.63,0,*7B
1505181892.48,63950,16.31,73172.0,6.37,5.63,5.63,0,*76
1505181893.66,63951,16.25,73168.8,6.37,5.63,5.63,0,*77
1505181894.84,63952,16.25,73168.8,6.37,5.63,5.63,0,*74
1505181896.02,63953,16.25,73170.3,6.37,5.63,5.67,0,*71
1505181897.2,63954,16.31,73172.0,6.37,5.63,5.67,0,*76
1505181898.37,63955,16.31,73172.5,6.37,5.63,5.63,0,*73
1505181899.57,63956,16.25,73170.5,6.37,5.55,5.63,0,*75
1505181900.75,63957,16.31,73170.8,6.37,5.63,5.71,0,*72
1505181901.93,63958,16.25,73170.8,6.37,5.63,5.67,0,*7A
1505181903.11,63959,16.25,73170.3,6.37,5.63,5.67,0,*7B
1505181904.32,63960,16.25,73168.3,6.39,5.67,5.71,0,*7C
1505181905.5,63961,16.25,73170.3,6.37,5.63,5.67,0,*70
1505181906.7,63962,16.31,73170.3,6.37,5.55,5.63,0,*72
1505181907.9,63963,16.25,73170.5,6.37,5.63,5.55,0,*73
1505181909.08,63964,16.25,73170.5,6.37,5.63,5.63,0,*71
1505181910.25,63965,16.31,73170.0,6.37,5.63,5.63,0,*70
1505181911.47,63966,16.25,73168.0,6.37,5.55,5.55,0,*73
1505181912.65,63967,16.25,73166.8,6.37,5.59,5.67,0,*7F
1505181913.86,63968,16.31,73168.8,6.39,5.67,5.63,0,*77
1505181915.04,63969,16.31,73166.3,6.37,5.63,5.63,0,*7C
1505181916.22,63970,16.25,73166.5,6.37,5.63,5.63,0,*74
1505181917.41,63971,16.31,73172.0,6.37,5.55,5.63,0,*70
1505181918.62,63972,16.31,73174.3,6.39,5.59,5.67,0,*75
1505181919.8,63973,16.31,73170.0,6.37,5.63,5.63,0,*77
1505181921.01,63974,16.31,73172.5,6.39,5.67,5.59,0,*73
1505181922.19,63975,16.25,73164.3,6.37,5.63,5.63,0,*71
1505181923.38,63976,16.31,73168.8,6.37,5.55,5.63,0,*77
1505181924.59,63977,16.25,73170.5,6.39,5.67,5.67,0,*7D
1505181925.8,63978,16.25,73166.8,6.39,5.67,5.71,0,*75
1505181927.01,63979,16.31,73170.0,6.39,5.67,5.71,0,*74
1505181928.19,63980,16.31,73168.8,6.37,5.63,5.67,0,*7F
1505181929.37,63981,16.25,73170.5,6.37,5.67,5.71,0,*7D
1505181930.58,63982,16.25,73170.8,6.39,5.63,5.67,0,*73
1505181931.76,63983,16.31,73172.8,6.37,5.67,5.67,0,*78
1505181932.94,63984,16.25,73170.8,6.37,5.63,5.67,0,*7B
1505181934.12,63985,16.25,73168.3,6.37,5.67,5.71,0,*79
1505181935.33,63986,16.25,73168.0,6.39,5.71,5.71,0,*73
1505181936.53,63987,16.25,73166.0,6.39,5.71,5.71,0,*72
1505181937.71,63988,16.25,73168.0,6.37,5.67,5.67,0,*73
1505181938.9,63989,16.25,73166.5,6.37,5.67,5.67,0,*72
1505181940.08,63990,16.25,73164.8,6.37,5.63,5.67,0,*7E
1505181941.25,63991,16.31,73168.8,6.37,5.63,5.63,0,*7B
1505181942.45,63992,16.31,73168.8,6.37,5.55,5.63,0,*7D
1505181943.63,63993,16.31,73170.3,6.37,5.63,5.63,0,*79
1505181944.83,63994,16.25,73164.8,6.41,5.71,5.73,0,*7D
1505181946.01,63995,16.25,73166.3,6.37,5.63,5.67,0,*7B
1505181947.18,63996,16.25,73166.3,6.37,5.63,5.71,0,*7F
1505181948.39,63997,16.25,73166.3,6.39,5.71,5.71,0,*73
1505181949.57,63998,16.25,73164.5,6.37,5.67,5.67,0,*72
1505181950.8,63999,16.25,73164.0,6.41,5.73,5.77,0,*76
1505181952.02,64000,16.25,73164.5,6.39,5.71,5.73,0,*71
1505181953.23,64001,16.25,73168.0,6.39,5.71,5.71,0,*72
1505181954.43,64002,16.25,73168.3,6.39,5.71,5.71,0,*71
1505181955.61,64003,16.31,73170.3,6.37,5.67,5.71,0,*79
1505181956.83,64004,16.25,73164.5,6.41,5.73,5.73,0,*78
1505181958.04,64005,16.31,73168.8,6.39,5.71,5.71,0,*76
1505181959.24,64006,16.25,73166.5,6.39,5.71,5.71,0,*75
1505181960.45,64007,16.25,73166.8,6.39,5.67,5.67,0,*74
1505181961.63,64008,16.31,73170.3,6.37,5.63,5.67,0,*71
1505181962.81,64009,16.25,73164.0,6.37,5.63,5.71,0,*77
1505181964.02,64010,16.25,73170.3,6.39,5.71,5.71,0,*72
1505181965.25,64011,16.25,73170.8,6.39,5.67,5.73,0,*76
1505181966.45,64012,16.25,73172.3,6.39,5.67,5.71,0,*77
1505181967.64,64013,16.25,73172.3,6.37,5.63,5.67,0,*7B
1505181968.81,64014,16.25,73168.3,6.37,5.67,5.71,0,*7F
1505181970.02,64015,16.25,73168.8,6.39,5.71,5.71,0,*77
1505181971.22,64016,16.31,73174.8,6.39,5.71,5.71,0,*74
1505181972.43,64017,16.25,73168.8,6.39,5.71,5.71,0,*75
1505181973.61,64018,16.25,73170.3,6.37,5.67,5.67,0,*74
1505181974.79,64019,16.31,73172.8,6.37,5.67,5.71,0,*72
1505181976.0,64020,16.25,73172.3,6.39,5.71,5.71,0,*71
1505181977.17,64021,16.25,73168.0,6.37,5.63,5.63,0,*7E
1505181978.37,64022,16.25,73170.8,6.37,5.55,5.63,0,*78
1505181979.58,64023,16.31,73170.8,6.39,5.67,5.67,0,*72
1505181980.78,64024,16.25,73170.0,6.39,5.71,5.71,0,*75
1505181981.99,64025,16.25,73172.3,6.39,5.71,5.71,0,*74
1505181983.17,64026,16.25,73172.5,6.37,5.67,5.71,0,*7E
1505181984.35,64027,16.25,73170.0,6.37,5.67,5.67,0,*78
1505181985.53,64028,16.25,73170.0,6.37,5.67,5.67,0,*77
1505181986.74,64029,16.31,73172.0,6.39,5.71,5.71,0,*78
1505181987.92,64030,16.25,73172.5,6.37,5.67,5.71,0,*79
1505181989.1,64031,16.25,73174.3,6.37,5.67,5.71,0,*78
1505181990.32,64032,16.31,73172.8,6.39,5.71,5.73,0,*70
1505181991.5,64033,16.25,73170.0,6.37,5.67,5.67,0,*7D
1505181992.71,64034,16.25,73170.8,6.39,5.71,5.71,0,*74
1505181993.91,64035,16.31,73170.8,6.39,5.67,5.71,0,*72
1505181995.12,64036,16.31,73172.3,6.39,5.67,5.71,0,*71
1505181996.33,64037,16.25,73170.5,6.39,5.67,5.71,0,*70
1505181997.54,64038,16.31,73170.5,6.39,5.67,5.67,0,*78
1505181998.76,64039,16.25,73168.3,6.39,5.67,5.67,0,*79
1505181999.98,64040,16.25,73168.8,6.39,5.67,5.73,0,*72
1505182001.19,64041,16.25,73168.3,6.39,5.71,5.71,0,*76
1505182002.41,64042,16.25,73170.5,6.39,5.71,5.73,0,*77
1505182003.62,64043,16.25,73168.3,6.39,5.71,5.71,0,*74
1505182004.8,64044,16.25,73168.5,6.37,5.63,5.67,0,*79
1505182006.01,64045,16.31,73172.8,6.39,5.67,5.71,0,*75
1505182007.23,64046,16.25,73170.0,6.39,5.71,5.73,0,*73
1505182008.44,64047,16.25,73170.8,6.39,5.71,5.71,0,*70
1505182009.67,64048,16.25,73164.0,6.39,5.73,5.71,0,*7D
1505182010.9,64049,16.31,73170.5,6.39,5.73,5.71,0,*7C
1505182012.1,64050,16.25,73168.3,6.39,5.71,5.71,0,*76
1505182013.31,64051,16.25,73166.5,6.39,5.71,5.71,0,*77
1505182014.51,64052,16.25,73170.0,6.39,5.71,5.71,0,*74
1505182015.74,64053,16.31,73174.0,6.41,5.73,5.73,0,*7A
1505182016.92,64054,16.25,73170.5,6.41,5.63,5.71,0,*7E
1505182018.13,64055,16.25,73168.5,6.39,5.67,5.67,0,*73
1505182019.34,64056,16.25,73168.8,6.39,5.67,5.67,0,*70
1505182020.55,64057,16.31,73168.0,6.39,5.67,5.67,0,*71
1505182021.73,64058,16.25,73168.3,6.37,5.63,5.63,0,*70
1505182022.94,64059,16.31,73170.8,6.39,5.59,5.67,0,*72
1505182024.15,64060,16.25,73168.3,6.39,5.67,5.67,0,*75
1505182025.35,64061,16.25,73166.8,6.37,5.63,5.55,0,*7F
1505182026.56,64062,16.25,73170.5,6.39,5.59,5.67,0,*7A
1505182027.74,64063,16.25,73170.5,6.37,5.63,5.67,0,*7C
1505182028.95,64064,16.25,73164.8,6.39,5.67,5.71,0,*76
1505182030.13,64065,16.31,73168.8,6.37,5.63,5.67,0,*7A
1505182031.34,64066,16.25,73168.8,6.39,5.67,5.67,0,*73
1505182032.55,64067,16.31,73172.0,6.39,5.67,5.67,0,*72
1505182033.76,64068,16.25,73168.8,6.39,5.67,5.67,0,*7D
1505182034.98,64069,16.25,73168.5,6.39,5.67,5.67,0,*7C
1505182036.16,64070,16.25,73168.8,6.41,5.71,5.71,0,*7B
1505182037.33,64071,16.25,73166.8,6.41,5.71,5.71,0,*7A
1505182038.54,64072,16.25,73168.3,6.39,5.59,5.59,0,*76
1505182039.72,64073,16.25,73170.8,6.37,5.63,5.63,0,*79
1505182040.93,64074,16.25,73166.3,6.39,5.67,5.67,0,*70
1505182042.14,64075,16.25,73168.3,6.39,5.67,5.67,0,*71
1505182043.32,64076,16.25,73168.0,6.37,5.67,5.63,0,*78
1505182044.53,64077,16.25,73164.5,6.39,5.71,5.71,0,*73
1505182045.73,64078,16.25,73170.0,6.39,5.71,5.71,0,*7C
1505182046.95,64079,16.31,73170.0,6.39,5.71,5.73,0,*7F
1505182048.13,64080,16.25,73168.8,6.37,5.63,5.63,0,*75
1505182049.34,64081,16.25,73170.8,6.39,5.67,5.71,0,*7D
1505182050.52,64082,16.31,73172.8,6.37,5.63,5.63,0,*77
1505182051.73,64083,16.25,73172.5,6.39,5.67,5.67,0,*78
1505182052.94,64084,16.25,73170.5,6.39,5.67,5.67,0,*7F
1505182054.15,64085,16.25,73172.3,6.39,5.67,5.67,0,*7E
1505182055.33,64086,16.25,73168.5,6.37,5.63,5.63,0,*73
1505182056.54,64087,16.31,73170.3,6.39,5.59,5.59,0,*7C
1505182057.75,64088,16.25,73166.5,6.39,5.59,5.67,0,*7E
1505182058.93,64089,16.31,73172.8,6.41,5.71,5.71,0,*7D
1505182060.13,64090,16.25,73170.0,6.39,5.59,5.67,0,*77
1505182061.33,64091,16.25,73172.5,6.37,5.55,5.63,0,*70
1505182062.51,64092,16.25,73170.5,6.37,5.63,5.63,0,*76
1505182063.72,64093,16.25,73172.3,6.39,5.67,5.67,0,*79
1505182064.93,64094,16.25,73170.5,6.39,5.59,5.59,0,*7E
1505182066.14,64095,16.25,73170.8,6.39,5.59,5.67,0,*72
1505182067.35,64096,16.25,73168.3,6.39,5.67,5.67,0,*7C
1505182068.55,64097,16.25,73170.3,6.37,5.63,5.55,0,*76
1505182069.76,64098,16.25,73168.5,6.39,5.67,5.67,0,*72
1505182070.98,64099,16.25,73166.5,6.37,5.55,5.55,0,*7D
1505182072.19,64100,16.31,73174.0,6.39,5.59,5.67,0,*7F
1505182073.37,64101,16.25,73172.0,6.37,5.63,5.63,0,*7D
1505182074.58,64102,16.25,73170.3,6.39,5.67,5.59,0,*7D
1505182075.76,64103,16.25,73174.3,6.37,5.67,5.63,0,*7B
1505182076.96,64104,16.31,73174.8,6.39,5.71,5.71,0,*76
1505182078.16,64105,16.25,73172.3,6.37,5.71,5.73,0,*7B
1505182079.33,64106,16.31,73172.8,6.37,5.63,5.71,0,*79
1505182080.54,64107,16.25,73172.8,6.39,5.67,5.71,0,*72
1505182081.75,64108,16.25,73174.0,6.39,5.67,5.71,0,*7D
1505182082.96,64109,16.31,73172.3,6.39,5.67,5.71,0,*7C
1505182084.19,64110,16.25,73170.8,6.39,5.67,5.73,0,*76
1505182085.39,64111,16.25,73168.8,6.39,5.67,5.71,0,*75
1505182086.58,64112,16.31,73172.3,6.37,5.67,5.67,0,*7F
1505182087.75,64113,16.25,73170.0,6.37,5.63,5.63,0,*7E
1505182088.96,64114,16.31,73170.3,6.39,5.67,5.63,0,*73
1505182090.14,64115,16.31,73170.5,6.37,5.63,5.63,0,*78
1505182091.32,64116,16.31,73168.0,6.37,5.67,5.67,0,*7B
1505182092.53,64117,16.25,73168.3,6.39,5.71,5.71,0,*74
1505182093.71,64118,16.25,73170.3,6.37,5.67,5.67,0,*75
1505182094.92,64119,16.25,73170.5,6.39,5.67,5.67,0,*7A
1505182096.13,64120,16.25,73170.5,6.39,5.67,5.67,0,*70
1505182097.35,64121,16.25,73170.8,6.37,5.55,5.55,0,*7F
1505182098.53,64122,16.25,73172.3,6.37,5.63,5.63,0,*7C
1505182099.74,64123,16.31,73174.8,6.39,5.59,5.67,0,*7E
1505182100.95,64124,16.25,73172.3,6.39,5.67,5.59,0,*79
1505182102.16,64125,16.31,73176.8,6.39,5.67,5.71,0,*72
1505182103.34,64126,16.31,73178.3,6.37,5.63,5.67,0,*7C
1505182104.55,64127,16.25,73174.3,6.39,5.67,5.71,0,*70
1505182105.72,64128,16.25,73172.0,6.37,5.63,5.71,0,*75
1505182106.96,64129,16.25,73174.5,6.39,5.73,5.71,0,*7B
1505182108.18,64130,16.25,73172.3,6.41,5.73,5.77,0,*7A
1505182109.35,64131,16.31,73172.3,6.37,5.71,5.71,0,*7E
1505182110.56,64132,16.25,73170.0,6.39,5.67,5.71,0,*74
1505182111.79,64133,16.25,73164.5,6.39,5.67,5.73,0,*77
1505182113.0,64134,16.25,73170.8,6.39,5.67,5.71,0,*72
1505182114.23,64135,16.31,73168.3,6.39,5.67,5.73,0,*71
1505182115.43,64136,16.31,73172.0,6.39,5.71,5.71,0,*77
1505182116.64,64137,16.25,73168.5,6.39,5.71,5.71,0,*76
1505182117.84,64138,16.25,73170.5,6.39,5.71,5.71,0,*79
1505182119.05,64139,16.25,73168.3,6.39,5.71,5.71,0,*78
1505182120.27,64140,16.31,73174.3,6.39,5.71,5.73,0,*74
1505182121.5,64141,16.25,73174.5,6.39,5.71,5.73,0,*75
1505182122.67,64142,16.25,73172.3,6.37,5.67,5.71,0,*7D
1505182123.88,64143,16.25,73172.0,6.39,5.71,5.71,0,*75